Location: Martley
(52.2333°N, 2.3667°W)
Time: 04:06:06
(UTC+00:00)

Okean O Rocket - Pass Details

Date: 11 December 2019
Orbit: 624 x 644 km, 98.2° (Epoch: 26 January)

Event Time Altitude Azimuth Distance (km) Brightness Sun altitude
Rises 06:13:18 0° 13° (NNE) 2,933 5.0 -16.4°
Reaches altitude 10° 06:15:30 10° 11° (NNE) 2,023 4.1 -16.1°
Maximum altitude 06:19:53 72° 289° (WNW) 671 1.5 -15.4°
Drops below altitude 10° 06:24:16 10° 205° (SSW) 2,020 4.1 -14.8°
Sets 06:26:28 0° 203° (SSW) 2,927 5.0 -14.5°
